[[{"header":{"parameterUnit":"m.s-1","parameterCategory":1,"la1":30.2991,"la2":30.254,"lo1":-89.0895,"lo2":-89.0444,"dy":0.0017,"dx":0.0017,"nx":28,"ny":28,"refTime":"2023-09-16T03:00:00:Z","depth":0,"parameterNumber":2,"parameterNumberName":"U-component_of_WINDS"},"data":[0,0,0,0,0,0,0,0,0,0,0,0,0,0,0,0,0,0,0,0,0,0,0,0,0,0,0,0,0,0,0,0,0,0,0,0,0,0,0,0,0,0,0,0,0,0,0,0,0,0,0,0,0,0,0,0,0,0,1.4798,1.4798,0,1.4808,1.4808,1.4808,1.4761,1.476,1.4758,1.4757,1.4769,1.4771,1.4773,0,0,0,0,0,0,0,0,0,0,0,0,0,1.474,1.4741,1.4798,1.4798,1.4798,1.4808,1.4808,1.4808,1.4761,1.476,1.4758,1.4756,1.4769,1.4771,1.4773,0,0,0,0,0,0,0,0,0,0,0,0,0,1.4759,1.4741,1.4798,1.4776,1.4774,1.4808,1.4808,1.4808,1.4762,1.476,1.4758,1.4756,1.4768,1.4771,1.4773,1.483,0,0,1.478,1.4782,0,0,0,0,0,0,0,0,1.4758,1.4761,1.4779,1.4778,1.4776,1.4781,1.4792,1.4816,1.4762,1.4767,1.4757,1.4755,1.4775,1.4777,1.4783,1.483,1.4831,1.4781,1.4782,1.4783,1.4784,0,0,0,0,0,0,0,1.4757,1.476,1.4802,1.4779,1.4777,1.4766,1.4766,1.4796,1.4782,1.4766,1.4763,1.4764,1.4774,1.4781,1.4783,1.4831,1.4781,1.4783,1.4784,1.4785,1.4923,1.4925,0,0,0,0,0,0,1.4758,1.476,1.4802,1.4802,1.4761,1.4769,1.4769,1.4782,1.4782,1.478,1.4766,1.4762,1.4778,1.4781,1.4784,1.4848,1.4783,1.4785,1.4787,1.492,1.4923,1.4925,0,0,0,0,0,0,1.4757,1.4762,1.4801,1.478,1.4784,1.4772,1.4786,1.4783,1.479,1.4782,1.4779,1.4776,1.4777,1.478,1.4818,1.4848,1.4787,1.4789,1.4918,1.4921,1.4924,1.4979,0,0,0,0,0,0,1.4755,1.4762,1.4783,1.4781,1.4786,1.4835,1.4788,1.4785,1.4794,1.4789,1.4791,1.4789,1.4775,1.4815,1.482,1.485,1.4791,1.4915,1.4919,1.4923,1.4974,1.4984,1.4992,0,0,0,0,0,1.4754,1.4799,1.4784,1.479,1.4812,1.4837,1.484,1.4822,1.4797,1.4818,1.4812,1.4789,1.4844,1.4819,1.4825,1.4856,1.4913,1.4918,1.4923,1.497,1.4982,1.4991,0,0,0,0,0,0,1.4806,1.4798,1.4782,1.4828,1.4834,1.4829,1.4855,1.4835,1.4849,1.4843,1.4822,1.4823,1.4864,1.4864,1.4836,1.491,1.4874,1.4881,1.4908,1.4919,1.4927,1.4926,1.4793,0,0,0,0,0,1.4823,1.4844,1.4836,1.4878,1.4881,1.4868,1.4878,1.4864,1.4869,1.4872,1.4869,1.4875,1.4894,1.4907,1.4923,1.4974,1.4974,1.4999,1.5008,1.5015,1.502,1.5046,1.5057,1.4942,1.4942,1.4941,0,0,1.4858,1.4856,1.4871,1.4888,1.4891,1.4913,1.487,1.4896,1.4912,1.4876,1.491,1.4909,1.4915,1.4959,1.4978,1.496,1.5052,1.5021,1.5027,1.5028,1.5052,1.5063,1.5073,1.4945,1.4944,1.4944,0,0,1.4933,1.4935,1.4968,1.4971,1.4975,1.4966,1.4974,1.4973,1.497,1.5004,1.4977,1.4997,1.5029,1.5034,1.5041,1.5116,1.5095,1.5123,1.5168,1.5193,1.5202,1.521,1.5236,1.5245,1.5128,1.5129,1.5129,0,1.4976,1.5008,1.4988,1.5015,1.5023,1.4991,1.5024,1.5029,1.5039,1.5045,1.5024,1.5064,1.5065,1.5109,1.5128,1.5135,1.5143,1.5122,1.5202,1.521,1.5217,1.5241,1.5251,1.5132,1.5131,1.5131,1.5131,0,1.5061,1.5083,1.511,1.5119,1.513,1.5161,1.5145,1.5159,1.5144,1.5137,1.5172,1.5173,1.5188,1.5198,1.5185,1.524,1.5228,1.5206,1.5169,1.5231,1.5254,1.5263,1.5136,1.5135,1.5134,1.5134,0,0,1.5169,1.5165,1.5175,1.5178,1.518,1.5197,1.5226,1.5241,1.5252,1.526,1.5283,1.5311,1.529,1.5297,1.5284,1.5306,1.5365,1.528,1.528,1.5295,1.5425,1.5441,1.5452,1.5351,1.5352,1.5354,1.5424,0,1.5241,1.5289,1.5272,1.5321,1.5341,1.531,1.5335,1.5339,1.5333,1.535,1.5344,1.5363,1.5334,1.5338,1.5359,1.5353,1.539,1.5348,1.5372,1.5373,1.537,1.5464,1.5482,1.5548,1.5432,1.5434,1.5435,0,1.5332,1.5341,1.5393,1.539,1.5397,1.542,1.5431,1.5448,1.5451,1.5445,1.5453,1.5435,1.5463,1.5427,1.5465,1.5437,1.5446,1.5444,1.5446,1.5447,1.5407,1.5466,1.5569,1.5578,1.5449,1.5448,1.5447,0,1.5403,1.543,1.5463,1.5467,1.5465,1.5482,1.5482,1.5483,1.5493,1.5503,1.5508,1.5522,1.553,1.5541,1.5526,1.5502,1.5566,1.5529,1.5562,1.5562,1.5576,1.5575,1.568,1.5584,1.5584,1.5583,1.5583,0,1.5485,1.5517,1.5495,1.5516,1.5551,1.5531,1.5566,1.5563,1.5565,1.5584,1.5559,1.5578,1.5558,1.5575,1.5564,1.5597,1.5601,1.5597,1.5593,1.5598,1.5599,1.5603,1.5598,1.5586,1.5585,1.5585,1.5584,0,1.5571,1.5558,1.5592,1.5587,1.5586,1.5612,1.5608,1.5627,1.5619,1.5644,1.5649,1.5637,1.5655,1.5642,1.5661,1.5654,1.5696,1.5687,1.5695,1.5692,1.5724,1.5721,1.5835,1.5848,1.5745,1.5746,1.5746,0,1.5623,1.5647,1.5644,1.5655,1.5656,1.5674,1.5683,1.5664,1.5675,1.568,1.5699,1.5715,1.5727,1.5758,1.5751,1.5766,1.5756,1.5795,1.5758,1.5762,1.5755,1.5753,1.5755,1.5802,1.5803,1.5804,1.5805,0,1.5717,1.5709,1.5723,1.5734,1.5746,1.5754,1.576,1.5771,1.5752,1.5765,1.5783,1.5792,1.5811,1.5827,1.5839,1.5839,1.5819,1.5817,1.5825,1.583,1.5833,1.583,1.5714,1.5814,1.5813,1.5812,1.5812,1.5812,1.5787,1.5806,1.5807,1.5823,1.5825,1.5831,1.5848,1.5842,1.5857,1.587,1.5859,1.588,1.5883,1.5896,1.5899,1.5915,1.5899,1.5911,1.5914,1.5917,1.5921,1.5831,1.5918,1.5917,1.5917,1.5917,1.5917,0,1.5879,1.5877,1.5892,1.5901,1.5913,1.5893,1.5898,1.591,1.5929,1.5933,1.5945,1.5966,1.5981,1.5976,1.5989,1.6004,1.5995,1.6008,1.6006,1.6006,1.5935,1.5926,1.6015,1.6015,1.6015,1.6015,1.6015,1.6015,1.5928,1.5958,1.5951,1.5983,1.5981,1.6001,1.6006,1.6012,1.6014,1.6038,1.6051,1.6047,1.6046,1.606,1.6073,1.6071,1.6077,1.6093,1.6088,1.6021,1.6012,1.6002,1.5994,1.6095,1.6095,1.6157,1.6158,1.6158]},{"header":{"parameterUnit":"m.s-1","parameterCategory":1,"la1":30.2991,"la2":30.254,"lo1":-89.0895,"lo2":-89.0444,"dy":0.0017,"dx":0.0017,"nx":28,"ny":28,"refTime":"2023-09-16T03:00:00:Z","depth":0,"parameterNumber":3,"parameterNumberName":"V-component_of_WINDS"},"data":[0,0,0,0,0,0,0,0,0,0,0,0,0,0,0,0,0,0,0,0,0,0,0,0,0,0,0,0,0,0,0,0,0,0,0,0,0,0,0,0,0,0,0,0,0,0,0,0,0,0,0,0,0,0,0,0,0,0,1.2509,1.251,0,1.2601,1.2602,1.2604,1.2676,1.2677,1.2677,1.2678,1.2768,1.277,1.2772,0,0,0,0,0,0,0,0,0,0,0,0,0,1.239,1.2392,1.2509,1.251,1.2511,1.2601,1.2603,1.2604,1.2676,1.2677,1.2677,1.2678,1.2768,1.277,1.2772,0,0,0,0,0,0,0,0,0,0,0,0,0,1.2458,1.2392,1.2509,1.2558,1.2563,1.2601,1.2603,1.2604,1.2676,1.2677,1.2678,1.2679,1.2767,1.2769,1.2772,1.2767,0,0,1.278,1.2781,0,0,0,0,0,0,0,0,1.2454,1.2462,1.255,1.2555,1.2561,1.2628,1.2594,1.2658,1.2675,1.2633,1.2678,1.2679,1.272,1.2727,1.2742,1.2771,1.2775,1.278,1.2782,1.2783,1.2784,0,0,0,0,0,0,0,1.2449,1.2458,1.2545,1.2551,1.2558,1.2574,1.2585,1.2606,1.2669,1.2637,1.2642,1.2652,1.2724,1.2739,1.2744,1.2776,1.278,1.2782,1.2784,1.2785,1.2804,1.2803,0,0,0,0,0,0,1.2437,1.2454,1.2542,1.2548,1.2509,1.2575,1.2587,1.2605,1.2669,1.268,1.2651,1.2655,1.2734,1.2741,1.2748,1.2745,1.2783,1.2785,1.2787,1.2805,1.2804,1.2803,0,0,0,0,0,0,1.2434,1.2444,1.2539,1.2503,1.2516,1.2576,1.2596,1.2607,1.2622,1.2681,1.2692,1.2656,1.2735,1.2744,1.2761,1.2749,1.2786,1.2789,1.2806,1.2805,1.2803,1.2739,0,0,0,0,0,0,1.2431,1.2443,1.2443,1.2502,1.2518,1.2552,1.2595,1.2608,1.2627,1.2633,1.2688,1.2698,1.2737,1.2757,1.2764,1.2753,1.2791,1.2808,1.2805,1.2804,1.2743,1.2736,1.273,0,0,0,0,0,1.2426,1.242,1.2442,1.2453,1.2519,1.2551,1.256,1.2606,1.2626,1.2625,1.2662,1.2696,1.275,1.2758,1.2767,1.2756,1.2809,1.2806,1.2804,1.2746,1.2737,1.273,0,0,0,0,0,0,1.2356,1.2429,1.2454,1.2468,1.2503,1.2563,1.2564,1.2596,1.2625,1.2629,1.2684,1.2696,1.2707,1.2734,1.2742,1.2754,1.2783,1.2782,1.2736,1.2728,1.2722,1.2715,1.2793,0,0,0,0,0,1.2343,1.2364,1.2426,1.2432,1.2448,1.2503,1.2519,1.2552,1.259,1.2604,1.2643,1.2677,1.2702,1.2717,1.2743,1.2747,1.2759,1.2744,1.2738,1.2732,1.273,1.2733,1.2727,1.2795,1.2795,1.2795,0,0,1.2314,1.2356,1.2367,1.2419,1.245,1.247,1.2515,1.2534,1.2549,1.2607,1.2626,1.2655,1.2697,1.2707,1.2714,1.273,1.2714,1.2729,1.2724,1.2725,1.273,1.2723,1.2718,1.2793,1.2793,1.2794,0,0,1.2272,1.2307,1.2315,1.2346,1.2393,1.2429,1.2431,1.2487,1.2509,1.2529,1.2573,1.259,1.2632,1.266,1.2679,1.2647,1.2678,1.2654,1.2619,1.2622,1.2616,1.2612,1.2599,1.2594,1.2652,1.2652,1.2652,0,1.223,1.2263,1.2315,1.2332,1.2352,1.2408,1.2416,1.2442,1.2494,1.2507,1.2525,1.2578,1.261,1.2627,1.2619,1.2633,1.2636,1.2648,1.2613,1.2609,1.2606,1.2594,1.2589,1.2649,1.2649,1.265,1.265,0,1.2209,1.2231,1.2231,1.2282,1.2303,1.2315,1.2367,1.2382,1.2413,1.2447,1.2466,1.2506,1.2541,1.2548,1.2578,1.2569,1.2577,1.2603,1.2633,1.2595,1.2585,1.2581,1.2644,1.2645,1.2646,1.2647,0,0,1.2124,1.2204,1.2203,1.2226,1.2282,1.23,1.2313,1.2349,1.236,1.2394,1.2406,1.244,1.2464,1.2486,1.252,1.2522,1.2492,1.2548,1.2549,1.2534,1.2483,1.2462,1.2456,1.2514,1.2513,1.2512,1.2479,0,1.209,1.212,1.2167,1.218,1.22,1.2253,1.2265,1.2299,1.2331,1.2352,1.2386,1.2409,1.2441,1.2454,1.2459,1.2495,1.2482,1.2498,1.2523,1.2523,1.251,1.2451,1.2429,1.2395,1.2475,1.2475,1.2474,0,1.2054,1.2086,1.2102,1.2156,1.2166,1.2176,1.2212,1.2232,1.2271,1.2294,1.2319,1.2356,1.2371,1.2399,1.2421,1.243,1.2443,1.2462,1.2462,1.2465,1.2495,1.2451,1.2386,1.238,1.2469,1.2469,1.247,0,1.1989,1.2037,1.2052,1.2071,1.2134,1.214,1.2166,1.2208,1.2225,1.2256,1.2268,1.2299,1.2316,1.2339,1.2382,1.2399,1.2398,1.243,1.2416,1.2414,1.2412,1.2411,1.2347,1.2423,1.2423,1.2423,1.2423,0,1.1945,1.1953,1.2024,1.2033,1.2042,1.2096,1.2103,1.2134,1.217,1.2185,1.2232,1.2244,1.2302,1.2321,1.2355,1.2366,1.2374,1.2391,1.24,1.2386,1.2384,1.2395,1.2397,1.2421,1.2422,1.2422,1.2422,0,1.1874,1.1923,1.1943,1.2002,1.2017,1.202,1.207,1.208,1.2115,1.2133,1.2141,1.2195,1.2219,1.2265,1.2302,1.2325,1.2328,1.2345,1.2315,1.2321,1.2303,1.2303,1.2242,1.2236,1.2316,1.2315,1.2315,0,1.1842,1.1849,1.1909,1.1924,1.1949,1.1971,1.199,1.2042,1.2059,1.2105,1.2109,1.2138,1.2163,1.2199,1.2241,1.2269,1.2285,1.2262,1.229,1.2275,1.2283,1.2282,1.2282,1.2255,1.2254,1.2253,1.2252,0,1.178,1.1804,1.183,1.1865,1.1886,1.1915,1.1947,1.1955,1.2015,1.2031,1.2058,1.2078,1.2116,1.2143,1.2177,1.2203,1.2236,1.2243,1.2241,1.2226,1.2209,1.2217,1.2297,1.2244,1.2245,1.2245,1.2246,1.2246,1.1727,1.1735,1.1779,1.1806,1.1836,1.1864,1.1876,1.1913,1.1937,1.1973,1.2002,1.2026,1.2064,1.2114,1.2137,1.2155,1.2171,1.2168,1.2168,1.2166,1.2159,1.2207,1.2162,1.2162,1.2162,1.2163,1.2163,0,1.1666,1.1697,1.1722,1.1765,1.1786,1.1818,1.1855,1.1869,1.189,1.1924,1.1949,1.1978,1.2004,1.2048,1.2077,1.2083,1.2099,1.2089,1.2088,1.2093,1.2144,1.2142,1.2075,1.2075,1.2075,1.2076,1.2076,1.2076,1.1637,1.1653,1.1681,1.1711,1.1742,1.1766,1.1784,1.181,1.1837,1.1868,1.1891,1.192,1.1957,1.199,1.2015,1.2027,1.2034,1.2019,1.2035,1.2082,1.209,1.2098,1.2096,1.2021,1.2021,1.1983,1.1983,1.1982]}]]